Regional Weather Roundup
Issued by NWS Cleveland, OH

Home | Current Version | Previous Version | Text Only | Print | Product List | Glossary Off
Versions: 1 2 3 4 5 6 7 8 9 10 11 12 13 14 15 16 17 18 19 20 21 22 23 24 25 26 27 28 29 30 31 32 33 34 35 36 37 38 39 40 41 42 43 44 45 46 47 48 49 50

000
ASUS41 KCLE 281710
RWRCLE
OHIO REGIONAL WEATHER ROUNDUP
NATIONAL WEATHER SERVICE WILMINGTON, OH
1200 PM EST WED JAN 28 2015

NOTE: "FAIR" INDICATES FEW OR NO CLOUDS BELOW 12,000 FEET WITH NO
SIGNIFICANT WEATHER AND/OR OBSTRUCTIONS TO VISIBILITY.

OHZ001>008-015>018-024>027-034-035-043-044-281800-
   NORTHWEST OHIO

CITY           SKY/WX    TMP DP  RH WIND       PRES   REMARKS
DEFIANCE       FAIR      22  10  60 S7        30.35  WCI  13
FINDLAY        FAIR      18  12  77 S6        30.35  WCI  10
TOLEDO EXPRESS FAIR      24  13  62 SE8       30.35  WCI  15
TOLEDO EXEC    FAIR      23  14  68 S6        30.37  WCI  16
LIMA           FAIR      19  12  74 S6        30.34  HAZE    WCI  11
$$

OHZ009>014-019>023-028>033-038-089-281800-
   NORTHEAST OHIO

CITY           SKY/WX    TMP DP  RH WIND       PRES   REMARKS
CLE-HOPKINS    FAIR      21  14  74 SW6       30.38  WCI  13
CLE-LAKEFRONT  FAIR      20  14  77 W7        30.36  WCI  11
CUY CO. ARPT   MOSUNNY   27  16  63 VRB3      30.35
LORAIN-ELYRIA  FAIR      18  14  84 SW3       30.36
ASHTABULA      FAIR      20   7  57 NW6       30.33  WCI  12
AKRON-CANTON   FAIR      20  12  71 CALM      30.32
WOOSTER        FAIR      17  12  80 CALM      30.35  HAZE
MANSFIELD      FAIR      19  13  77 CALM      30.32
YOUNGSTOWN     FAIR      18  11  74 CALM      30.32
$$

OHZ042-051>053-060>062-070>072-077>081-281800-
  SOUTHWEST OHIO

CITY           SKY/WX    TMP DP  RH WIND       PRES   REMARKS
CINC-COVINGTON FAIR      29  15  56 S7        30.36  WCI  22
CINC-LUNKEN    FAIR      27  17  66 VRB3      30.41
HAMILTON       FAIR      29  17  61 S6        30.39  WCI  23
DAYTON         FAIR      24  16  71 S5        30.35  WCI  18
WRIGHT-PAT AFB MOSUNNY   21  14  72 CALM      30.37
DAYTON GENERAL FAIR      24  15  68 S5        30.35  WCI  18
WILMINGTON     FAIR      25  15  66 CALM      30.36
$$

OHZ036-037-039>041-045>050-054>059-063>069-073>076-082>088-281800-
  CENTRAL AND SOUTHEAST OHIO

CITY           SKY/WX    TMP DP  RH WIND       PRES   REMARKS
COLUMBUS       FAIR      23  14  68 CALM      30.38
OSU AIRPORT    FAIR      22  14  71 CALM      30.37
BOLTON FIELD   SUNNY     19  14  79 CALM      30.38
RICKENBACK AFB FAIR      20  13  76 CALM      30.39
NEWARK         FAIR      22  14  71 CALM      30.36
MARION         FAIR      15  11  83 SW3       30.37  FOG
LANCASTER      FAIR      22  15  75 W6        30.38  WCI  14
ZANESVILLE     FAIR      19  12  74 CALM      30.37
NEW PHILLY     FAIR      20  11  68 W3        30.37
$$



USA.gov is the U.S. government's official web portal to all federal, state and local government web resources and services.